Notices

What's New in latest Release from April 7th, 2021:

- Updated Glossary, including Speed of Maximum Gust, and Total Hourly Precipitation

- Updated national and regional climate services offices contacts and prices information

- Addition of station inventory lists for 1981-2010, 1971-2000, and 1961-1990 Normals.

If you haven't already, please take our survey and provide feedback about our website: https://eccc.sondage-survey.ca/f/LanguageSelection.aspx?s=442ca660-fcf1-47c0-95a9-59707d6fd709

Hourly Data Report for November 21, 2019

PINAWA
MANITOBA
Current Station Operator: ECCC - MSC

50°10'38.020" N
96°03'53.000" W
268.00 m
503B1ER
71448
WEA

Download Data

Hourly Data (November 2019)
Hourly Data Report for November 21, 2019
TIME
LST
Temp Definition
°C
Dew Point Definition
°C
Rel Hum Definition
%
Precip. Amount Definition
mm

Wind Dir Definition
10's deg

Wind Spd Definition
km/h
Visibility Definition
km
Stn Press Definition
kPa
Hmdx Definition


Wind Chill Definition


Weather Definition


00:00 -8.9 LegendMM LegendMM 0.0 35 16   98.76   -16 LegendNANA
01:00 -9.7 LegendMM LegendMM 0.0 35 17   98.76   -17 LegendNANA
02:00 -9.8 LegendMM LegendMM 0.0 35 8   98.69   -14 LegendNANA
03:00 -9.5 LegendMM LegendMM 0.0 33 10   98.71   -15 LegendNANA
04:00 -9.4 LegendMM LegendMM 0.0 33 11   98.72   -15 LegendNANA
05:00 -8.9 LegendMM LegendMM 0.0 33 11   98.73   -14 LegendNANA
06:00 -8.8 LegendMM LegendMM 0.0 35 15   98.74   -15 LegendNANA
07:00 -8.9 LegendMM LegendMM 0.0 34 14   98.76   -15 LegendNANA
08:00 -9.0 LegendMM LegendMM 0.0 32 13   98.79   -15 LegendNANA
09:00 -9.0 LegendMM LegendMM 0.0 32 11   98.82   -14 LegendNANA
10:00 -8.7 LegendMM LegendMM 0.0 33 15   98.85   -15 LegendNANA
11:00 -8.7 LegendMM LegendMM 0.0 30 14   98.82   -15 LegendNANA
12:00 -8.5 LegendMM LegendMM 0.0 31 18   98.81   -16 LegendNANA
13:00 -8.3 LegendMM LegendMM 0.0 31 18   98.82   -15 LegendNANA
14:00 -8.1 LegendMM LegendMM 0.0 32 15   98.80   -14 LegendNANA
15:00 -8.3 LegendMM LegendMM 0.0 31 14   98.83   -14 LegendNANA
16:00 -8.6 LegendMM LegendMM 0.0 30 10   98.82   -14 LegendNANA
17:00 -9.4 LegendMM LegendMM 0.0 27 5   98.89   -12 LegendNANA
18:00 -10.6 LegendMM LegendMM 0.0 21 3   98.86   -12 LegendNANA
19:00 -11.1 LegendMM LegendMM 0.0 23 5   98.88   -14 LegendNANA
20:00 -11.6 LegendMM LegendMM 0.0 21 5   98.84   -15 LegendNANA
21:00 -11.5 LegendMM LegendMM 0.0 18 5   98.81   -15 LegendNANA
22:00 -12.0 LegendMM LegendMM 0.0 17 7   98.74   -16 LegendNANA
23:00 -12.3 LegendMM LegendMM 0.0 18 8   98.66   -17 LegendNANA

Notes on Data Quality.

Legend

  • E = Estimated
  • M = Missing
  • NA = Not Available*
  • [empty] = Indicates an unobserved value
Date modified: